Location: Alanthus
(38.7000°N, 100.1671°W)
Time: 01:17:00
(UTC+00:00)

Daily predictions for brighter satellites

Satellite Brightness Start Highest point End
(mag) Time Altitude Azimuth Time Altitude Azimuth Time Altitude Azimuth
Genesis I 3.4 02:16:16 10° SSW 02:20:07 50° ESE 02:24:03 10° NE
MetOp-A 3.6 02:16:09 10° SSE 02:20:16 54° ENE 02:24:09 10° N
COSMOS 2487 2.8 02:19:10 10° N 02:22:07 38° ENE 02:25:04 10° SE
Cosmos 1743 Rocket 3.6 02:17:43 10° N 02:22:11 72° E 02:26:37 10° SSE
USA 129 2.3 02:21:44 10° SSE 02:24:10 41° ENE 02:26:16 10° N
Resurs 01 Rocket 3.0 02:21:30 10° ESE 02:24:57 23° ENE 02:28:25 10° NNE
OBJECT-B 1.8 02:23:42 10° S 02:26:30 42° W 02:29:20 10° NNW
Cosmos 1666 2.9 02:23:00 10° N 02:26:44 51° E 02:30:25 10° SSE
Cosmos 1805 Rocket 3.8 02:23:21 10° N 02:27:45 56° E 02:32:05 10° SSE
USA 276 2.7 02:27:23 10° WNW 02:30:13 45° SW 02:33:02 10° SSE
Cosmos 1500 3.4 02:26:30 10° N 02:30:19 75° W 02:34:06 10° S
Ariane Rocket 4.3 02:28:00 10° ESE 02:32:03 25° ENE 02:36:06 10° NNE
BREEZE-M (TANK) 3.3 02:32:00 10° WSW 02:34:48 65° NNW 02:42:43 10° NE
Cosmos 2016 Rocket 4.2 02:28:57 10° S 02:35:17 83° W 02:41:42 10° N
Cosmos 1802 Rocket 4.5 02:29:11 10° SSW 02:35:33 69° W 02:41:54 10° N
Okean-O 3.1 02:31:49 10° S 02:36:11 63° W 02:40:35 10° NNW
Cosmos 1151 Rocket 3.5 02:33:36 10° SSE 02:37:37 40° E 02:41:37 10° NNE
Cosmos 1633 Rocket 4.4 02:35:13 10° NNE 02:38:46 23° ENE 02:41:48 12° SE
Cosmos 2227 Rocket 3.8 02:35:33 10° N 02:39:42 20° NE 02:43:48 10° E
Delta 2 Rocket 4.2 02:36:48 10° WSW 02:39:53 29° SSW 02:42:46 12° SE
COBE Rocket 4.0 02:39:41 10° SSE 02:44:50 79° ENE 02:49:54 10° N
Cosmos 2233 Rocket 4.0 02:39:09 10° S 02:45:23 69° E 02:51:41 10° NNE
Cosmos 1656 3.7 02:40:20 10° S 02:45:48 58° ESE 02:51:14 10° NNE
CSL-04 Rocket 4.2 02:41:01 10° S 02:46:13 60° WSW 02:51:30 10° NNW
Cosmos 1315 Rocket 3.9 02:42:42 10° NNE 02:46:17 28° ENE 02:48:58 15° SE
Landsat 7 3.8 02:43:16 10° SSE 02:47:56 66° ENE 02:52:36 10° N
USA 186 3.4 02:46:25 10° SSW 02:48:35 24° W 02:50:41 10° NW
Cosmos 1980 Rocket 3.9 02:48:23 12° ESE 02:49:29 12° E 02:51:39 10° ENE
SJ-6B 3.7 02:47:03 10° S 02:50:48 47° W 02:54:30 10° NNW
Cosmos 44 3.7 02:48:14 10° NNW 02:52:20 40° NE 02:55:25 16° ESE
Meteor 1-14 Rocket 4.3 02:46:41 10° N 02:52:36 69° E 02:58:21 10° SSE
USA 238 DEB 4.5 02:46:17 10° NNW 02:53:19 47° NE 02:59:35 15° ESE
USA 238 4.5 02:46:24 10° NNW 02:53:26 47° NE 02:59:41 15° ESE
X-37B 2.1 02:51:15 10° W 02:53:31 22° SW 02:55:12 13° S
Sich 1 3.1 02:51:36 10° N 02:56:00 87° W 03:00:19 10° S
BREEZE M DEB (TANK) 3.7 02:52:48 10° WSW 02:56:10 64° NNW 03:07:05 10° ENE
CENTAUR R/B 3.4 02:48:00 10° NNW 02:56:25 74° NE 03:04:14 15° SE
Cosmos 1812 4.3 02:57:23 10° SSW 03:00:55 36° WNW 03:04:28 10° N
Meteor 1-27 Rocket 4.4 03:01:42 15° SSE 03:05:51 35° E 03:11:04 10° NNE
Cosmos 1814 Rocket 3.9 03:02:33 10° NNW 03:07:41 75° ENE 03:11:33 18° SSE
Meteor 1-5 Rocket 4.2 03:03:38 10° NNW 03:09:04 80° W 03:14:21 10° S
Cosmos 1697 Rocket 3.1 03:04:42 10° S 03:09:58 42° ESE 03:15:16 10° NE
SL-27 R/B 4.5 03:07:18 10° NW 03:10:03 24° W 03:12:45 10° SSW
CARTOSAT-1 4.5 03:10:23 21° ESE 03:12:29 33° ENE 03:16:22 10° N
CZ-4B R/B 1.7 03:11:58 10° N 03:15:09 63° WNW 03:18:17 10° SSW
Cosmos 2297 Rocket 2.4 03:12:13 10° NNW 03:17:47 58° ENE 03:21:15 23° SE
Meteor 1-11 Rocket 4.2 03:12:44 10° N 03:18:31 47° ENE 03:22:03 22° SE
ASTRO E2 3.8 03:17:09 10° SW 03:20:23 25° S 03:20:39 25° SSE
SPOT 1/Viking Rocket 3.5 03:18:19 19° SSE 03:22:07 78° ENE 03:27:17 10° N
Cosmos 389 Rocket 4.1 03:21:34 10° NNE 03:24:09 19° ENE 03:24:23 19° E
IRS-1A Rocket 4.3 03:20:52 16° SSE 03:25:30 83° WSW 03:31:14 10° NNW
Cosmos 405 3.0 03:29:01 10° N 03:32:22 53° E 03:33:02 44° ESE
Cosmos 1536 3.4 03:28:39 10° N 03:32:26 39° E 03:33:24 34° ESE
Cosmos 1515 3.7 03:32:23 36° SSE 03:33:37 56° E 03:37:19 10° NNE
Helios 1A Rocket 3.6 03:33:30 31° ESE 03:34:31 36° ENE 03:38:13 10° N
H-2A R/B 4.1 03:31:24 10° N 03:34:53 27° WNW 03:38:21 10° SW
USA 215 3.8 03:30:22 10° ENE 03:36:09 33° SE 03:41:54 10° S
Cosmos 1072 Rocket 4.4 03:34:48 19° S 03:39:19 69° E 03:45:24 10° NNE
Cosmos 1328 Rocket 4.0 03:35:37 10° SSW 03:39:50 59° W 03:44:07 10° N
SPOT 5 3.7 03:40:00 29° ESE 03:42:04 42° ENE 03:47:00 10° N
Aureole 1 Rocket 2.4 03:41:57 55° SE 03:42:15 58° ESE 03:45:21 10° NNE
OAO 3 Rocket 3.4 03:37:49 10° WSW 03:42:38 53° S 03:44:22 35° ESE
Cosmos 2208 Rocket 4.0 03:38:21 10° NNW 03:43:48 87° WSW 03:46:32 30° SSE
MetOp-B 4.1 03:41:44 26° SSE 03:44:49 87° WSW 03:50:12 10° NNW
Cosmos 1743 3.0 03:41:31 10° N 03:45:11 47° E 03:45:35 44° ESE
Cosmos 2219 3.3 03:43:47 10° NNW 03:49:23 63° ENE 03:51:37 36° SE
ATLAS 2AS CENTAUR R/B 3.4 03:49:03 25° SSE 03:52:48 40° ESE 03:59:49 10° NE
SL-4 R/B 3.9 03:49:36 10° NW 03:53:27 27° NNE 03:55:45 17° ENE
ERS-1 Rocket 3.4 03:53:50 37° ESE 03:55:16 48° ENE 04:00:05 10° N
Cosmos 2344 3.4 03:48:12 10° SSW 03:55:58 76° ESE 04:03:24 10° NE
Cosmos 1340 2.5 03:56:13 53° SSW 03:57:02 87° W 04:00:47 10° N
NOSS 3-4 (A) 3.7 03:51:51 10° SW 03:57:27 64° NW 04:03:27 10° NNE
NOSS 3-4 (C) 3.7 03:51:54 10° SW 03:57:33 65° NW 04:03:33 10° NNE
Cosmos 2082 4.5 03:54:14 10° N 03:59:30 38° ENE 04:01:14 31° E
Resurs 01 Rocket 3.2 03:58:20 15° SSW 04:01:16 29° W 04:05:08 10° NW
Cosmos 1933 Rocket 3.5 03:57:32 10° N 04:02:00 69° E 04:02:49 55° SE
Gbstr 26 Del rocket 4.1 03:57:09 10° NW 04:04:09 61° SW 04:06:20 39° SSE
Terra 2.2 04:05:26 42° E 04:06:13 46° ENE 04:10:46 10° N
Cosmos 2034 Rocket 3.9 04:03:51 34° S 04:06:46 72° E 04:13:04 10° N
Meteor 1-19 Rocket 4.2 04:07:17 45° SE 04:08:38 59° E 04:13:57 10° NNE
Ariane Rocket 4.2 04:07:46 19° SSW 04:10:46 37° W 04:15:28 10° NNW
Cosmos 2263 Rocket 3.5 04:09:55 10° N 04:14:32 26° ENE 04:16:02 23° E
SPOT 3 Rocket 4.0 04:13:01 33° SSW 04:15:06 56° W 04:20:11 10° NNW
SJ 16-02 1.5 04:23:45 57° ENE 04:23:45 57° ENE 04:27:33 10° NNE
Cosmos 2227 Rocket 2.5 04:18:34 10° NNW 04:24:09 59° WSW 04:25:50 42° SSW
Cosmos 2228 Rocket 3.1 04:25:33 66° E 04:25:33 66° E 04:30:02 10° NNE
Meteor 2-4 Rocket 4.1 04:25:54 44° ESE 04:26:17 44° E 04:31:43 10° NNE
CZ-2C R/B 4.0 04:23:15 10° N 04:28:00 71° WNW 04:29:22 45° SW
Cosmos 2369 3.9 04:27:23 23° SW 04:30:55 71° WNW 04:36:35 10° NNE
Cosmos 1980 Rocket 2.2 04:30:02 33° SSW 04:32:40 79° WNW 04:38:21 10° NNE
Cosmos 1354 Rocket 4.0 04:32:24 48° SSW 04:33:56 82° WNW 04:39:15 10° NNE
EXPRESS MD2 4.1 04:33:33 10° NW 04:37:07 41° N 04:37:07 41° N
Cosmos 2322 Rocket 4.0 04:40:16 16° ENE 04:40:16 16° ENE 04:42:10 10° NE
Milstar 3 Cent rocket 4.5 04:32:36 10° W 04:42:12 24° SW 04:43:51 23° SSW
Cosmos 1777 Rocket 3.8 04:42:18 73° ESE 04:42:21 74° ESE 04:47:35 10° NNE
Meteor 2-8 Rocket 4.5 04:43:11 55° ESE 04:43:47 58° E 04:49:44 10° NNE
ARIANE 5 R/B 2.6 04:44:00 83° NW 04:44:00 83° NW 04:48:21 10° NNW
Meteor 2-21 4.4 04:37:45 10° N 04:43:52 81° W 04:45:17 55° S
Spot 2 Rocket 4.1 04:43:48 40° SW 04:44:48 46° W 04:49:39 10° NNW
USA 81 4.1 04:46:27 62° E 04:46:27 62° E 04:51:38 10° N
Meteor 1-18 Rocket 4.1 04:45:58 65° S 04:46:51 85° E 04:52:33 10° N
Cosmos 2195 Rocket 4.4 04:43:23 10° N 04:49:46 82° E 04:50:54 62° SSE
Cosmos 1378 4.4 04:51:55 37° N 04:51:55 37° N 04:54:13 10° N
Cosmos 1869 Rocket 3.7 04:46:36 10° NNW 04:50:49 70° WNW 04:50:49 70° WNW
Cosmos 1346 Rocket 4.2 04:57:20 33° NNE 04:57:20 33° NNE 04:59:41 10° NNE
Meteor 2-21 Rocket 4.3 04:49:37 10° N 04:55:44 88° W 04:56:40 66° S
Cosmos 773 Rocket 3.9 04:52:11 10° NNW 04:57:24 81° ENE 04:57:24 81° ENE
RESURS DK-1 3.3 04:59:57 43° NNE 04:59:57 43° NNE 05:02:50 10° NNE
Cosmos 2297 Rocket 4.2 04:57:38 10° WNW 05:01:17 18° W 05:03:05 15° WSW
Meteor 2-15 4.2 05:00:57 71° SE 05:01:24 74° E 05:07:27 10° N
Cosmos 1428 Rocket 4.4 04:55:16 10° N 05:01:36 87° W 05:02:34 67° S
Cosmos 921 Rocket 3.9 05:03:33 10° NNW 05:07:20 44° W 05:07:20 44° W
Meteor 2-16 Rocket 4.3 05:05:12 10° N 05:11:22 78° W 05:12:04 69° SSW
ISS -0.8 05:10:33 10° NNW 05:12:27 14° NNE 05:12:31 14° NNE
Cosmos 1092 Rocket 4.0 05:07:03 10° NNW 05:13:11 66° W 05:14:03 59° SW
Cosmos 1707 Rocket 4.2 05:14:25 55° NNW 05:14:25 55° NNW 05:18:02 10° N
SL-16 R/B 2.6 05:14:53 50° ENE 05:14:53 50° ENE 05:19:28 10° NNE
Cosmos 1634 Rocket 4.1 05:13:10 58° SW 05:14:17 71° W 05:20:30 10° N
Cosmos 2142 Rocket 4.4 05:14:58 73° SE 05:15:26 77° E 05:21:50 10° N
Timation 2 Rocket 4.2 05:11:06 10° NNW 05:17:36 64° WSW 05:18:26 59° SW
USA 215 3.5 05:12:53 10° NE 05:19:23 67° NW 05:25:51 10° WSW
Cosmos 1538 Rocket 4.5 05:16:56 10° N 05:21:38 52° NE 05:21:38 52° NE
SL-4 R/B 3.9 05:29:01 10° NW 05:31:10 27° WNW 05:31:10 27° WNW
BREEZE-M DEB (TANK) 4.1 05:37:23 10° NW 05:38:49 30° NNW 05:38:49 30° NNW
ALOS 2 4.1 05:44:51 31° NNE 05:44:51 31° NNE 05:47:39 10° N
ATLAS 2AS CENTAUR R/B 3.8 05:36:17 10° WSW 05:43:41 48° NW 05:51:00 10° NNE
Terra 3.9 05:44:19 17° W 05:44:19 17° W 05:47:15 10° NW
Cosmos 158 Rocket 4.5 05:39:10 10° NNW 05:43:21 55° NW 05:43:21 55° NW
Cosmos 2360 Rocket 3.1 05:47:17 37° ENE 05:47:17 37° ENE 05:51:05 10° NE
ADEOS Rocket 3.8 05:48:37 34° ENE 05:48:44 34° ENE 05:53:49 10° N
Cosmos 1733 Rocket 4.4 05:46:11 10° NNW 05:49:08 36° NW 05:49:08 36° NW
USA 267 3.9 05:49:51 35° E 05:52:17 51° NE 05:58:34 10° NW
Cosmos 2263 Rocket 3.0 05:53:21 10° NW 05:57:43 40° W 05:57:43 40° W
Cosmos 1066 Rocket 4.5 06:00:06 65° WNW 06:00:06 65° WNW 06:05:34 10° N
SJ 16-02 4.1 06:00:39 10° W 06:02:13 12° WNW 06:03:50 10° NW
Cosmos 1680 Rocket 4.5 05:59:05 10° N 06:03:34 40° NE 06:03:34 40° NE
Cosmos 2333 Rocket 3.3 06:14:52 35° ENE 06:14:52 35° ENE 06:18:37 10° NE
Cosmos 1898 Rocket 4.1 06:16:19 56° NNE 06:16:19 56° NNE 06:20:30 10° NNE
Cosmos 2266 Rocket 4.0 06:12:58 10° N 06:18:53 76° NW 06:18:53 76° NW
Cosmos 2322 Rocket 2.7 06:22:02 53° NW 06:22:02 53° NW 06:27:20 10° NNE
ATLAS 3B R/B 2.7 06:17:09 10° NNW 06:24:38 89° NE 06:25:15 78° SE
ATLAS CENTAUR R/B 3.5 06:34:41 10° N 06:38:40 25° NE 06:39:05 24° NE
Cosmos 1844 Rocket 3.0 06:34:55 10° NNW 06:39:34 62° N 06:39:34 62° N
Cosmos 1844 3.9 06:43:14 10° NNW 06:48:20 68° N 06:48:20 68° N
Cosmos 2219 Rocket 2.6 06:53:29 55° NE 06:53:29 55° NE 06:57:55 10° NNE
Nimbus 7 Rocket 4.5 06:52:22 10° N 06:57:50 72° NW 06:57:50 72° NW
SL-16 R/B 4.1 06:56:42 18° WNW 06:58:24 21° NW 07:02:36 10° N
Meteor 1-21 4.4 07:01:17 71° NNE 07:01:17 71° NNE 07:06:29 10° N
CZ-4C R/B 4.2 06:54:20 10° NNW 07:01:06 38° NE 07:08:49 10° ESE
Meteor 2-17 Rocket 4.5 06:58:32 10° N 07:04:12 71° NW 07:04:12 71° NW
Cosmos 1553 Rocket 3.9 07:06:49 74° ENE 07:06:49 74° ENE 07:12:38 10° N
COSMOS 2428 3.1 07:07:32 56° ENE 07:07:32 56° ENE 07:12:15 10° NNE
Nadezhda 2 Rocket 4.4 07:01:39 10° N 07:07:30 81° N 07:07:30 81° N
Cosmos 1244 Rocket 4.4 07:03:47 10° N 07:09:57 85° NNW 07:09:57 85° NNW
Cosmos 1867 4.3 07:11:32 47° ENE 07:11:32 47° ENE 07:15:39 10° NE
Cosmos 2237 Rocket 3.7 07:15:30 25° E 07:15:30 25° E 07:19:33 10° NE
Thor Agena Rocket 4.2 07:20:13 10° NNE 07:24:42 47° ENE 07:24:42 47° ENE
Cosmos 2360 Rocket 3.8 07:29:01 23° WNW 07:29:55 24° NW 07:34:28 10° N
CZ-2D R/B 3.5 07:28:05 10° NE 07:32:42 29° E 07:32:42 29° E
Okean 2 Rocket 4.3 07:28:19 10° N 07:31:15 40° NNW 07:31:15 40° NNW
ASTEX 1 4.4 07:28:46 10° N 07:32:23 39° NW 07:32:23 39° NW
Cosmos 1818 4.1 07:28:08 10° NW 07:32:10 50° NW 07:32:10 50° NW
ADEOS Rocket 4.2 07:35:33 26° WNW 07:35:33 26° WNW 07:39:09 10° NW
USA 267 4.0 07:37:09 37° W 07:37:09 37° W 07:41:32 10° WNW
GP-B 4.3 07:36:25 10° NNE 07:39:47 37° ENE 07:39:47 37° ENE
Lacrosse 5 4.3 07:42:27 12° E 07:42:27 12° E 07:43:27 10° E
Cosmos 1745 Rocket 3.8 07:40:59 10° N 07:47:15 88° E 07:47:34 82° SSE
USA 32 4.3 07:47:55 61° ENE 07:47:55 61° ENE 07:52:54 10° NNE
Cosmos 2278 Rocket 3.3 07:42:46 10° N 07:48:06 40° ENE 07:50:30 27° ESE
Cosmos 1461 4.0 07:50:42 10° NNW 07:53:55 42° NNE 07:53:55 42° NNE
Cosmos 1626 4.5 07:58:20 18° NNW 07:58:20 18° NNW 07:59:39 10° NNW
Cosmos 2333 Rocket 3.6 07:56:52 25° WNW 07:57:43 26° NW 08:02:24 10° N
SL-16 R/B 3.6 07:55:23 23° ESE 07:58:41 41° ENE 08:04:27 10° N
SL-16 R/B 4.0 07:58:34 18° ESE 07:59:42 19° E 08:03:36 10° NE
Cosmos 1980 3.6 08:05:37 77° SE 08:05:45 78° ESE 08:11:25 10° NNE
NOSS 0 Rocket 3.8 08:06:25 72° SW 08:07:02 82° WNW 08:13:19 10° NNE
NOSS 3-1 (A) 4.3 07:59:28 10° NNW 08:07:14 75° NE 08:16:12 10° SE
Cosmos 883 Rocket 4.3 08:09:29 71° SSW 08:10:12 81° W 08:16:34 10° N
Resurs 1-4 Rocket 2.0 08:09:19 10° NNE 08:14:35 75° ESE 08:14:52 73° SE
Cosmos 1953 3.7 08:10:46 10° NNW 08:13:07 33° NNW 08:13:07 33° NNW
NOSS 3-1 (C) 4.1 08:09:31 10° NW 08:17:17 63° WSW 08:19:55 46° S
ATLAS CENTAUR R/B 3.4 08:13:08 10° NW 08:15:04 22° WNW 08:15:04 22° WNW
Cosmos 371 Rocket 3.5 08:19:46 60° NW 08:19:46 60° NW 08:24:18 10° NNE
NPP 3.7 08:15:05 10° NNE 08:20:28 68° ESE 08:21:06 62° SE
Okean 1 Rocket 4.1 08:17:08 10° NNW 08:20:10 38° NW 08:20:10 38° NW
Cosmos 2150 Rocket 4.2 08:21:36 57° WNW 08:21:38 57° WNW 08:26:44 10° N
AQUA 4.3 08:17:34 10° NNE 08:22:13 51° E 08:22:30 50° ESE
Meteor 2-12 Rocket 4.3 08:20:24 10° NNW 08:26:24 65° W 08:27:00 61° SW
USA 306 3.3 08:28:09 60° NNE 08:28:09 60° NNE 08:31:40 10° NE
USA 307 3.2 08:29:33 61° NE 08:29:33 61° NE 08:33:03 10° NE
Cosmos 2315 Rocket 4.0 08:28:25 57° SW 08:29:29 68° W 08:35:51 10° N
Cosmos 1300 3.9 08:28:33 10° NNW 08:30:53 35° NNW 08:30:53 35° NNW
Cosmos 2219 Rocket 4.1 08:35:10 15° WNW 08:36:52 17° NW 08:40:25 10° NNW
ADEOS II 2.3 08:33:02 10° NNE 08:38:16 63° ESE 08:39:26 49° SSE
Cosmos 304 Rocket 3.8 08:40:05 63° W 08:40:13 63° WNW 08:45:01 10° NNE
Cosmos 1709 Rocket 4.0 08:36:15 10° NNW 08:42:13 55° W 08:43:06 50° WSW
SME Rocket 4.1 08:43:43 32° NW 08:43:43 32° NW 08:46:27 10° NNW
EO 1 Del DPAF 4.0 08:39:26 10° NNE 08:42:26 43° ENE 08:42:26 43° ENE
COSMOS 2455 4.4 08:41:12 19° SE 08:43:49 26° ESE 08:48:44 10° NE
IDEFIX/ARIANE 42P 2.9 08:40:37 10° NNE 08:45:50 60° E 08:47:22 43° SSE
Cosmos 1125 Rocket 4.5 08:46:23 31° WNW 08:46:57 32° WNW 08:51:36 10° N
Helios 1A 3.9 08:45:58 31° SE 08:47:32 46° ENE 08:51:34 10° N
CZ-4 R/B 4.1 08:44:15 10° N 08:48:43 48° WNW 08:48:53 48° W
CZ-4C R/B 3.1 08:42:32 10° NW 08:50:04 58° WSW 08:55:03 26° S
ERBS 3.4 08:56:33 38° NNE 08:56:33 38° NNE 08:58:41 10° NE
YAOGAN 11 4.0 08:57:20 68° SSW 08:57:49 79° WSW 09:02:18 10° NNW
Cosmos 2237 Rocket 2.9 08:57:19 35° W 08:58:43 41° WNW 09:04:06 10° N
USA 308 3.3 08:58:41 47° WNW 08:59:11 50° NW 09:03:16 10° NE
BREEZE-M DEB (TANK) 4.2 08:59:43 35° S 09:00:38 38° SSE 09:03:44 10° ENE
Meteor 2-10 Rocket 3.9 08:57:18 10° NNW 09:02:44 48° W 09:03:36 44° WSW
MOS 1 Rocket 2.9 09:02:21 64° SSW 09:02:56 78° W 09:07:13 10° NNW
Cosmos 1455 Rocket 3.2 08:59:15 10° NNW 09:03:36 53° W 09:03:39 53° W
Cosmos 1536 Rocket 4.0 09:04:50 36° SSE 09:06:22 56° E 09:10:42 10° NNE
MSX 3.9 09:01:01 10° NNE 09:06:47 72° ESE 09:09:33 32° S
FALCON 9 R/B 4.2 08:38:15 10° W 09:07:58 58° SSW 09:15:26 10° SE
CZ-2D R/B 3.0 09:07:56 10° N 09:12:42 34° WNW 09:14:01 29° W
Cosmos 1975 Rocket 4.1 09:14:15 29° W 09:14:22 29° WNW 09:18:15 10° NNW
IRS-1D 3.7 09:14:49 10° NNE 09:20:11 75° ESE 09:22:59 29° S
Cosmos 839 Rocket 4.5 09:15:10 10° NW 09:21:31 51° WSW 09:29:13 10° S
Nadezhda 1 Rocket 4.0 09:18:56 25° S 09:22:51 86° E 09:29:14 10° N
Lacrosse 5 1.8 09:21:39 41° SW 09:23:29 89° NW 09:28:37 10° NE
Cosmos 2084 Rocket 3.5 09:23:37 45° W 09:24:17 52° NW 09:28:01 10° NNE
SeaSat 1 4.3 09:21:05 10° NE 09:24:57 23° ESE 09:28:49 10° SSE
USA 305 4.4 09:23:33 20° WNW 09:25:21 28° NNW 09:29:00 10° NNE
Meteor 1-28 Rocket 3.6 09:31:11 42° WSW 09:31:17 42° W 09:34:51 10° NNW
USA 229 DEB 4.2 09:24:14 10° NW 09:31:20 45° WSW 09:38:46 10° S
USA 229 4.2 09:24:19 10° NW 09:31:26 46° WSW 09:38:52 10° S
Cosmos 2278 Rocket 3.1 09:27:15 10° NW 09:31:55 27° WSW 09:32:16 27° WSW
OE (NEXTSAT) 4.1 09:35:39 20° WNW 09:37:50 87° SSW 09:41:08 10° ESE
Cosmos 1943 Rocket 2.2 09:32:37 10° NNW 09:38:20 86° ENE 09:43:59 10° SSE
SL-16 R/B 3.4 09:40:28 26° SW 09:42:19 30° W 09:47:42 10° NW
SL-16 R/B 2.5 09:40:27 28° SW 09:43:18 54° WNW 09:48:52 10° NNE
Cosmos 2154 Rocket 4.0 09:42:10 10° NNW 09:48:27 67° W 09:54:27 11° S
Cosmos 1271 Rocket 2.6 09:45:11 10° N 09:48:59 90° WSW 09:52:19 13° S
Cosmos 2369 Rocket 3.6 09:43:57 10° N 09:49:11 39° ENE 09:54:24 10° SE
Cosmos 1544 Rocket 4.4 09:45:22 10° NNW 09:49:17 32° W 09:50:30 27° WSW
Lacrosse 5 rocket 1.1 09:48:05 33° SW 09:49:43 85° NW 09:53:47 10° NE
Cosmos 1269 Rocket 4.4 09:48:29 10° NNW 09:53:27 43° WSW 09:57:20 16° SSW
Resurs 1-4 Rocket 4.1 09:51:09 10° NNW 09:53:44 14° WNW 09:55:56 11° W
Cosmos 614 Rocket 4.1 09:49:02 10° NNW 09:54:14 81° ENE 09:59:27 10° SSE
Cosmos 1455 3.2 09:57:47 10° NNW 10:00:54 26° W 10:01:43 24° WSW
ALOS 2.8 09:56:58 10° NNE 10:01:34 58° E 10:06:09 10° S
PAYLOAD A 4.3 09:58:39 10° NNE 10:03:18 59° E 10:08:02 10° S
Cosmos 1892 Rocket 4.3 10:00:34 10° S 10:04:53 55° E 10:09:15 10° NNE
Cosmos 1603 4.4 10:00:59 10° S 10:06:24 52° ESE 10:11:53 10° NNE
H-2A R/B 3.1 10:06:14 13° S 10:08:06 19° SE 10:13:23 10° ESE
Meteor 2-1 Rocket 4.5 10:04:00 10° N 10:09:48 75° E 10:15:26 10° SSE
BREEZE-M DEB (TANK) 3.7 10:10:02 18° SSW 10:12:03 50° SE 10:19:12 10° ENE
Cosmos 1726 Rocket 3.9 10:11:44 10° N 10:16:09 70° E 10:20:30 10° SSE
ADEOS II 3.9 10:14:15 10° NNW 10:17:23 16° WNW 10:20:22 10° W
Cosmos 1703 4.2 10:16:36 18° SW 10:18:49 30° WNW 10:22:20 10° NNW
Cosmos 1656 Rocket 4.4 10:15:34 10° NNW 10:20:54 56° ENE 10:26:13 10° SE
ATLAS 2A CENTAUR R/B 4.2 10:14:01 14° SW 10:23:20 30° S 10:28:42 10° ESE
IDEFIX/ARIANE 42P 4.3 10:21:35 10° NNW 10:24:52 17° WNW 10:28:08 10° WSW
Meteor 1-29 3.0 10:21:57 10° NNE 10:25:12 73° ESE 10:28:26 10° S
IRS-P3 4.1 10:21:31 10° NNE 10:26:54 87° WNW 10:32:13 10° SSW
COSMOS 2455 3.4 10:24:22 13° SW 10:29:26 47° WNW 10:35:15 10° NNE
Helios 1B rocket 3.4 10:30:15 10° N 10:33:49 30° WNW 10:37:13 11° SW
Cosmos 2218 Rocket 4.1 10:27:36 10° N 10:33:52 88° E 10:40:10 10° S
Cosmos 1408 2.9 10:30:49 10° S 10:34:26 66° E 10:38:03 10° NNE
Cosmos 1484 Rocket 3.5 10:36:52 10° NNE 10:40:37 54° E 10:44:27 10° S
Cosmos 2058 Rocket 3.3 10:36:47 10° N 10:41:11 75° E 10:45:31 10° SSE
Cosmos 1943 3.3 10:36:13 10° SSW 10:41:53 70° WNW 10:47:35 10° NNE
Cosmos 2181 Rocket 4.1 10:36:49 10° SSW 10:43:02 64° W 10:49:12 10° N
Cosmos 1140 Rocket 3.6 10:41:19 10° NNW 10:46:36 84° ENE 10:51:49 10° SSE
YAOGAN 6 4.3 10:45:40 10° NNE 10:48:57 33° E 10:52:14 10° SSE
Cosmos 2098 4.4 10:46:41 10° N 10:49:51 75° E 10:52:48 10° S
Cosmos 1624 Rocket 4.2 10:46:04 10° SSW 10:51:23 82° ESE 10:56:43 10° NNE
ARIANE 5 R/B 2.7 10:46:51 10° N 10:51:48 55° WNW 10:56:40 10° SSW
Cosmos 1626 Rocket 4.2 10:48:43 10° S 10:53:04 60° E 10:57:24 10° NNE
CZ-2C R/B 3.0 10:49:17 10° N 10:54:07 43° WNW 10:58:50 10° SW
CZ-3 R/B 4.0 10:15:24 10° WSW 10:54:18 58° S 11:03:47 10° ESE
Lacrosse 4 Rocket 3.5 10:50:45 10° SSE 10:54:20 25° ESE 10:57:51 10° NE
